BEIDOU-3 M9 (C23)

Last updated on Mon Feb 13 2023 00:03:21 GMT+0000 (Coordinated Universal Time)

1 43581U 18062A 23043.21992615 .00000105 00000+0 00000+0 0 9999 2 43581 54.2166 223.8814 0001825 337.8577 119.8289 1.86231890 30897

Satellite not in orbit

BEIDOU-3 M9 (C23)